Retour au catalogue

STARLINK-31817

ActifCommunicationsVLEO
NORAD 59731·PAYLOAD·🇺🇸 United States

Lancé May 13, 2024 depuis Cape Canaveral Space Force Station

Loading…

Prochains Passages (prochaines 24 heures)

TLE

FraisSource: CelesTrak SupGP

Époque: Sep 15, 2026, 02:15 UTC

1 59731C 24090B   26258.09423611 -.00030747  00000+0 -11138-2 0  2585
2 59731  42.9992 193.5854 0001085 271.9067 319.3690 15.27589857    12

Suivez STARLINK-31817 en temps réel avec AllMySat

Download on the App Store